Flag for U.S.A. Weather past 2 weeks in Boston, Massachusetts, U.S.A.

Now
35 °F

Overcast.


Feels Like: 27 °F
Forecast: 31 / 36 °F
Wind: 10 mph from Northeast

Location: Logan International Airport

Current Time: Dec 20, 2014 at 10:39:48 PM

Latest Report: Dec 20, 2014 at 9:54 PM


Visibility: 10 mi

Pressure: 30.29 "Hg

Humidity: 75%

Dew point: 28 °F

Location of BostonLocation

Historic Weather in Boston — Graph

°F

Boston temperature yesterday

Maximum temperature yesterday: 37 °F (at 12:54 AM)
Minimum temperature yesterday: 29 °F (at 10:54 PM)
Average temperature yesterday: 34 °F

Past Weeks' High & Low Weather Summary

 TemperatureHumidityPressure
High49 °F (Dec 9, 6:54 PM)100% (Dec 6, 4:54 AM)30.76 "Hg (Dec 6, 4:54 AM)
Low18 °F (Dec 8, 5:54 AM)28% (Dec 7, 7:54 PM)29.43 "Hg (Dec 10, 9:54 PM)
Average37 °F78%29.99 "Hg
* Reported Dec 5 8:54 PM — Dec 20 8:54 PM, Boston, Weather by CustomWeather, © 2014

Note: Actual official high and low records may vary slightly from our data, if they occured in-between our weather recording intervals... More about our weather records

Advertising

Boston weather history for previous 24 hours

 ConditionsComfort  
Time TempWeatherWind HumidityBarometerVisibility
8:54 PM
Dec 20
35 °FOvercast.20 mph78%30.29 "Hg10 mi
7:54 PM35 °FLight snow. Mostly cloudy.13 mph78%30.31 "Hg9 mi
6:54 PM34 °FLight snow. Mostly cloudy.8 mph85%30.30 "Hg8 mi
5:54 PM33 °FLight snow. Mostly cloudy.12 mph82%30.28 "Hg7 mi
4:54 PM33 °FLight snow. Overcast.10 mph72%30.28 "Hg8 mi
3:54 PM34 °FOvercast.10 mph70%30.27 "Hg10 mi
2:54 PM34 °FOvercast.7 mph70%30.27 "Hg10 mi
1:54 PM34 °FOvercast.7 mph67%30.27 "Hg10 mi
12:54 PM33 °FMostly cloudy.8 mph70%30.26 "Hg10 mi
11:54 AM33 °FCloudy.10 mph70%30.27 "Hg10 mi
10:54 AM31 °FMostly cloudy.9 mph69%30.28 "Hg10 mi
9:54 AM30 °FPartly sunny.9 mph72%30.29 "Hg10 mi
8:54 AM30 °FScattered clouds.9 mph69%30.29 "Hg10 mi
7:54 AM28 °FPassing clouds.10 mph72%30.28 "Hg10 mi
6:54 AM27 °FClear.5 mph75%30.25 "Hg10 mi
5:54 AM28 °FClear.9 mph75%30.22 "Hg10 mi
4:54 AM28 °FPassing clouds.9 mph72%30.20 "Hg10 mi
3:54 AM28 °FClear.9 mph72%30.19 "Hg10 mi
2:54 AM28 °FClear.9 mph72%30.19 "Hg10 mi
1:54 AM28 °FClear.10 mph75%30.18 "Hg10 mi
12:54 AM28 °FClear.7 mph75%30.16 "Hg10 mi
11:54 PM
Dec 19
29 °FClear.9 mph69%30.14 "Hg10 mi
10:54 PM29 °FClear.8 mph69%30.14 "Hg10 mi
Weather by CustomWeather, © 2014

See weather overviewHow to use our weather pages